When you browse on this site, cookies collect data to enhance your experience and personalize the content and advertising you see.
Visit our Privacy Policy to learn more. By continuing to use the site, you agree to this use of cookies and data.
  • în România
  • Lista ţărilor
  • Pe 7 zile
  • Temperatura apei
  • Hartă satelitară
  • Meteo pe hartă
  • Widget-uri
  • user-avatar
    Intrare

    Meteo pe oră la Achisu

    Astăzi, 25 Aprilie, Joi

    Timp Temperatura Precipitaţii Vânt Presiune Umiditate
    00:00 +10°C° 0 mm 3 m/s 750 mmHg 52%
    01:00 +10°C° 0 mm 3 m/s 750 mmHg 50%
    02:00 +10°C° 0 mm 3 m/s 750 mmHg 49%
    03:00 +10°C° 0 mm 3 m/s 750 mmHg 48%
    04:00 +11°C° 0.1 mm 3 m/s 751 mmHg 48%
    05:00 +11°C° 0.1 mm 3 m/s 751 mmHg 49%
    06:00 +11°C° 0.1 mm 3 m/s 751 mmHg 49%
    07:00 +12°C° 0.1 mm 4 m/s 751 mmHg 50%
    08:00 +13°C° 0.1 mm 4 m/s 751 mmHg 50%
    09:00 +14°C° 0.1 mm 5 m/s 751 mmHg 51%
    10:00 +15°C° 0 mm 5 m/s 751 mmHg 50%
    11:00 +15°C° 0 mm 5 m/s 751 mmHg 49%
    12:00 +16°C° 0 mm 5 m/s 751 mmHg 49%
    13:00 +17°C° 0.1 mm 4 m/s 751 mmHg 49%
    14:00 +17°C° 0.1 mm 3 m/s 751 mmHg 49%
    15:00 +17°C° 0.1 mm 3 m/s 751 mmHg 50%
    16:00 +16°C° 0.1 mm 2 m/s 751 mmHg 54%
    17:00 +16°C° 0.1 mm 1 m/s 751 mmHg 57%
    18:00 +15°C° 0.1 mm 1 m/s 751 mmHg 61%
    19:00 +15°C° 0 mm 2 m/s 751 mmHg 63%
    20:00 +14°C° 0 mm 2 m/s 751 mmHg 64%
    21:00 +13°C° 0 mm 3 m/s 751 mmHg 66%
    22:00 +12°C° 0 mm 3 m/s 751 mmHg 65%
    23:00 +12°C° 0 mm 3 m/s 751 mmHg 65%

    Mâine, 26 Aprilie, Vineri

    Timp Temperatura Precipitaţii Vânt Presiune Umiditate
    00:00 +12°C° 0 mm 3 m/s 751 mmHg 65%
    01:00 +12°C° 0 mm 3 m/s 751 mmHg 63%
    02:00 +11°C° 0 mm 3 m/s 751 mmHg 61%
    03:00 +11°C° 0 mm 3 m/s 751 mmHg 59%
    04:00 +11°C° 0 mm 3 m/s 751 mmHg 58%
    05:00 +11°C° 0 mm 3 m/s 750 mmHg 56%
    06:00 +12°C° 0 mm 3 m/s 750 mmHg 55%
    07:00 +14°C° 0 mm 2 m/s 750 mmHg 51%
    08:00 +16°C° 0 mm 2 m/s 750 mmHg 47%
    09:00 +19°C° 0 mm 1 m/s 750 mmHg 43%
    10:00 +18°C° 0 mm 2 m/s 750 mmHg 44%
    11:00 +19°C° 0 mm 3 m/s 750 mmHg 44%
    12:00 +19°C° 0 mm 4 m/s 750 mmHg 44%
    13:00 +19°C° 0 mm 4 m/s 749 mmHg 45%
    14:00 +19°C° 0 mm 5 m/s 749 mmHg 47%
    15:00 +19°C° 0 mm 5 m/s 748 mmHg 48%
    16:00 +17°C° 0 mm 5 m/s 748 mmHg 52%
    17:00 +16°C° 0 mm 5 m/s 748 mmHg 55%
    18:00 +15°C° 0 mm 4 m/s 748 mmHg 59%
    19:00 +15°C° 0 mm 4 m/s 748 mmHg 62%
    20:00 +14°C° 0 mm 3 m/s 749 mmHg 64%
    21:00 +13°C° 0 mm 3 m/s 749 mmHg 67%
    22:00 +13°C° 0 mm 3 m/s 749 mmHg 66%
    23:00 +12°C° 0 mm 3 m/s 748 mmHg 66%

    Poimâine, 27 Aprilie, Sâmbătă

    Timp Temperatura Precipitaţii Vânt Presiune Umiditate
    00:00 +12°C° 0 mm 3 m/s 748 mmHg 65%
    01:00 +12°C° 0 mm 3 m/s 748 mmHg 64%
    02:00 +13°C° 0 mm 2 m/s 748 mmHg 63%
    03:00 +12°C° 0 mm 2 m/s 748 mmHg 62%
    04:00 +13°C° 0 mm 2 m/s 748 mmHg 61%
    05:00 +13°C° 0 mm 2 m/s 748 mmHg 59%
    06:00 +13°C° 0 mm 2 m/s 748 mmHg 58%
    07:00 +14°C° 0 mm 3 m/s 747 mmHg 53%
    08:00 +17°C° 0 mm 3 m/s 747 mmHg 47%
    09:00 +18°C° 0 mm 4 m/s 747 mmHg 42%
    10:00 +19°C° 0 mm 5 m/s 747 mmHg 42%
    11:00 +19°C° 0 mm 5 m/s 747 mmHg 41%
    12:00 +20°C° 0 mm 6 m/s 746 mmHg 40%
    13:00 +19°C° 0 mm 6 m/s 746 mmHg 41%
    14:00 +19°C° 0 mm 6 m/s 746 mmHg 43%
    15:00 +19°C° 0 mm 6 m/s 745 mmHg 44%
    16:00 +17°C° 0 mm 5 m/s 745 mmHg 49%
    17:00 +15°C° 0 mm 5 m/s 745 mmHg 55%
    18:00 +14°C° 0 mm 4 m/s 745 mmHg 60%
    19:00 +13°C° 0 mm 4 m/s 745 mmHg 63%
    20:00 +13°C° 0 mm 4 m/s 745 mmHg 65%
    21:00 +12°C° 0 mm 3 m/s 745 mmHg 67%
    22:00 +12°C° 0 mm 3 m/s 745 mmHg 66%
    23:00 +12°C° 0 mm 3 m/s 744 mmHg 65%

    28 Aprilie, Duminică

    Timp Temperatura Precipitaţii Vânt Presiune Umiditate
    00:00 +12°C° 0 mm 3 m/s 744 mmHg 64%
    01:00 +11°C° 0 mm 3 m/s 744 mmHg 63%
    02:00 +11°C° 0 mm 3 m/s 743 mmHg 61%
    03:00 +11°C° 0 mm 3 m/s 743 mmHg 59%
    04:00 +13°C° 0 mm 2 m/s 743 mmHg 58%
    05:00 +13°C° 0 mm 2 m/s 743 mmHg 57%
    06:00 +13°C° 0 mm 2 m/s 743 mmHg 56%
    07:00 +15°C° 0 mm 2 m/s 743 mmHg 53%
    08:00 +16°C° 0 mm 2 m/s 742 mmHg 50%
    09:00 +18°C° 0 mm 3 m/s 742 mmHg 48%
    10:00 +18°C° 0 mm 3 m/s 742 mmHg 49%
    11:00 +18°C° 0 mm 3 m/s 742 mmHg 51%
    12:00 +19°C° 0 mm 3 m/s 742 mmHg 52%
    13:00 +19°C° 0.1 mm 3 m/s 742 mmHg 53%
    14:00 +18°C° 0.1 mm 3 m/s 741 mmHg 55%
    15:00 +18°C° 0.1 mm 2 m/s 741 mmHg 56%
    16:00 +18°C° 0.1 mm 2 m/s 741 mmHg 60%
    17:00 +18°C° 0.1 mm 1 m/s 741 mmHg 63%
    18:00 +16°C° 0.1 mm 1 m/s 741 mmHg 67%
    19:00 +16°C° 0.1 mm 1 m/s 741 mmHg 67%
    20:00 +15°C° 0.1 mm 1 m/s 741 mmHg 67%
    21:00 +15°C° 0.1 mm 1 m/s 742 mmHg 68%
    22:00 +15°C° 0 mm 1 m/s 742 mmHg 68%
    23:00 +14°C° 0 mm 1 m/s 741 mmHg 67%

    29 Aprilie, Luni

    Timp Temperatura Precipitaţii Vânt Presiune Umiditate
    00:00 +14°C° 0 mm 1 m/s 741 mmHg 67%
    01:00 +14°C° 0 mm 1 m/s 741 mmHg 66%
    02:00 +14°C° 0 mm 1 m/s 741 mmHg 65%
    03:00 +13°C° 0 mm 1 m/s 741 mmHg 64%
    04:00 +14°C° 0 mm 1 m/s 741 mmHg 62%
    05:00 +15°C° 0 mm 1 m/s 741 mmHg 61%
    06:00 +15°C° 0 mm 1 m/s 741 mmHg 59%
    07:00 +18°C° 0 mm 1 m/s 742 mmHg 54%
    08:00 +19°C° 0 mm 1 m/s 742 mmHg 49%
    09:00 +21°C° 0 mm 1 m/s 742 mmHg 44%
    10:00 +21°C° 0 mm 2 m/s 742 mmHg 43%
    11:00 +21°C° 0 mm 2 m/s 742 mmHg 43%
    12:00 +22°C° 0 mm 3 m/s 742 mmHg 43%
    13:00 +22°C° 0 mm 3 m/s 741 mmHg 44%
    14:00 +22°C° 0 mm 3 m/s 741 mmHg 44%
    15:00 +22°C° 0 mm 3 m/s 741 mmHg 45%
    16:00 +21°C° 0.1 mm 3 m/s 741 mmHg 48%
    17:00 +20°C° 0.1 mm 3 m/s 741 mmHg 51%
    18:00 +19°C° 0.1 mm 3 m/s 742 mmHg 55%
    19:00 +18°C° 0 mm 3 m/s 742 mmHg 57%
    20:00 +18°C° 0 mm 3 m/s 742 mmHg 60%
    21:00 +17°C° 0 mm 2 m/s 742 mmHg 62%
    22:00 +17°C° 0 mm 2 m/s 742 mmHg 63%
    23:00 +16°C° 0 mm 2 m/s 742 mmHg 64%

    30 Aprilie, Marţi

    Timp Temperatura Precipitaţii Vânt Presiune Umiditate
    00:00 +16°C° 0 mm 2 m/s 742 mmHg 65%
    01:00 +16°C° 0 mm 2 m/s 742 mmHg 65%
    02:00 +16°C° 0 mm 2 m/s 742 mmHg 65%
    03:00 +16°C° 0 mm 2 m/s 742 mmHg 65%
    04:00 +16°C° 0 mm 2 m/s 742 mmHg 63%
    05:00 +17°C° 0 mm 2 m/s 742 mmHg 62%
    06:00 +17°C° 0 mm 2 m/s 742 mmHg 61%
    07:00 +18°C° 0 mm 3 m/s 742 mmHg 55%
    08:00 +20°C° 0 mm 3 m/s 743 mmHg 49%
    09:00 +21°C° 0 mm 4 m/s 743 mmHg 44%
    10:00 +21°C° 0 mm 5 m/s 743 mmHg 44%
    11:00 +22°C° 0 mm 6 m/s 743 mmHg 44%
    12:00 +22°C° 0 mm 6 m/s 742 mmHg 45%
    13:00 +21°C° 0 mm 6 m/s 742 mmHg 46%
    14:00 +21°C° 0 mm 6 m/s 742 mmHg 48%
    15:00 +20°C° 0 mm 6 m/s 742 mmHg 49%
    16:00 +19°C° 0.1 mm 6 m/s 742 mmHg 54%
    17:00 +17°C° 0.1 mm 5 m/s 742 mmHg 59%
    18:00 +15°C° 0.1 mm 4 m/s 742 mmHg 63%
    19:00 +15°C° 0 mm 4 m/s 743 mmHg 67%
    20:00 +14°C° 0 mm 4 m/s 743 mmHg 70%
    21:00 +13°C° 0 mm 3 m/s 743 mmHg 74%
    22:00 +13°C° 0 mm 3 m/s 743 mmHg 75%
    23:00 +13°C° 0 mm 3 m/s 743 mmHg 76%
    Arată mai mult